STARLINK-5547, 55352

Orbit data source: Space-Track

STARLINK-5547, 55352 is a payload satellite owned by SpaceX/Seattle (US) in LEO that was launched on Thu, 26 Jan 2023 UTC via an FALCON 9 launch vehicle from the Air Force Eastern Test Range (AFETR). Payload-class satellites include a variety of spacecraft equipped with specific instruments for various scientific and technological missions. These include communications satellites like Starlink; space stations such as the ISS; scientific satellites like the Hubble; Earth observation satellites from companies like Planet Labs, Umbra, and HawkEye 360; GPS; miniature CubeSats for education and research; and military/defense satellites.

Loading next visibility...
Identifier
55352, 2023-013X
Orbit
LEO
Country
Flag of USUS
Related business
Manufacturer
SpaceX/Seattle
Mission
Operational Commercial Communications
Bus & Motor
STARLINK, Unknown motor
Mass
305 kg wet, ~290 kg dry
Launch date (UTC)
2023-01-26 (3 years ago)
Launch vehicle
FALCON 9
Launch site
Air Force Eastern Test Range (AFETR)
Object type
Payload
Rocket body
Debris
Shape & HBR
Box + 1 Pan, 10.1 m
Radar Cross Section
13.562 m², Large (>1 m²)

Expand to show TLE details & history
Last TLE update: 19 hours ago

TLE from 19 hours ago
0 STARLINK-5547
1 55352U 23013X   25348.88017857 -.00000841  00000-0 -47170-4 0  9993
2 55352  43.0033  41.0083 0000941 270.0951  89.9784 15.02531226158959
Epoch: 2025-12-14T21:07Z
TLE epoch observation values (Epoch: 2025-12-14T21:07:27.428Z)
Latitude
0.00002°
Longitude
0.35728°
Altitude
558.872 km
Speed
7.584 km/s
True Right ascension
02h 44m 01s
True Declination
0° 00' 00"
Sunlit
Object was in full shadow at epoch
Visualization orbit readout
Latitude
Unknown
Longitude
Unknown
Altitude
Unknown
Speed
Unknown
Apparent Right ascension
Unknown
Apparent Declination
Unknown
Sunlit
N/A
Visualization observer readout
Local Sidereal Time
15:08:17
Azimuth
Unknown
Elevation
Unknown
Doppler factor
Unknown
Orbital elements
Apogee altitude
561.671 km
Perigee altitude
560.365 km
Semi-major axis
6,939.155 km
Eccentricity
0.00009
Inclination
43.0033°
RAAN
41.0083°
Arg. of periapsis
270.0951°
True anomaly
89.98918°
Mean anomaly
89.9784°
Eccentric anomaly
89.98379°
Mean motion
3.75477 °/min
Orbital period
95.88 mins
BSTAR
-0.00004717
Loading maneuver chart data...
Computing Atmospheric mass density...
Loading historical data...
Loading historical data...
Loading historical data...
Loading historical data...
Loading historical data...
Loading historical data...
Loading historical data...

Documentation

Showing up to 5 results
|